Flag for South Africa Weather past 2 weeks in Pretoria, South Africa

Now
75 °F

Mild.


Feels Like: 77 °F
Forecast: 64 / 80 °F
Wind: 3 mph from Northwest

Location: Waterkloof Lmb

Current Time: Jan 29, 2015 at 3:02:40 PM

Latest Report: Jan 29, 2015 at 2:00 PM


Visibility: N/A

Pressure: 30.12 "Hg

Humidity: 65%

Dew point: 63 °F

Location of PretoriaLocation

Historic Weather in Pretoria — Graph

°F

Pretoria temperature yesterday

Maximum temperature yesterday: 73 °F (at 6:00 PM)
Minimum temperature yesterday: 66 °F (at 10:00 PM)
Average temperature yesterday: 69 °F

Past Weeks' High & Low Weather Summary

 TemperatureHumidityPressure
High90 °F (Jan 22, 3:00 PM)100% (Jan 29, 5:00 AM)30.36 "Hg (Jan 29, 5:00 AM)
Low59 °F (Jan 23, 4:00 AM)31% (Jan 25, 3:00 PM)30.04 "Hg (Jan 25, 3:00 PM)
Average74 °F61%30.19 "Hg
* Reported Jan 14 2:00 PM — Jan 29 2:00 PM, Pretoria, Weather by CustomWeather, © 2014

Note: Actual official high and low records may vary slightly from our data, if they occured in-between our weather recording intervals... More about our weather records

Advertising

Pretoria weather history for previous 24 hours

 ConditionsComfort  
Time TempWeatherWind HumidityBarometerVisibility
2:00 PM
Jan 29
75 °FMild.3 mph65%30.12 "HgN/A
1:00 PM72 °FMostly cloudy.12 mphN/A30.21 "HgN/A
12:00 PM70 °FMild.6 mph88%30.18 "HgN/A
11:00 AM73 °FMild.5 mph69%30.21 "HgN/A
10:00 AM77 °FWarm.7 mph65%30.21 "HgN/A
9:00 AM75 °FMild.5 mph74%30.21 "HgN/A
8:00 AM72 °FMild.6 mph83%30.21 "HgN/A
7:00 AM68 °FMild.3 mph88%30.21 "HgN/A
6:00 AM66 °FMild.1 mph94%30.18 "HgN/A
5:00 AM64 °FMild.1 mph100%30.15 "HgN/A
4:00 AM64 °FMild.2 mph94%30.15 "HgN/A
3:00 AM64 °FMild.1 mph94%30.15 "HgN/A
2:00 AM64 °FMild.2 mph88%30.15 "HgN/A
1:00 AM66 °FMild.5 mph83%30.15 "HgN/A
12:00 AM68 °FMild.3 mph83%30.18 "HgN/A
11:00 PM
Jan 28
66 °FMild.5 mph88%30.18 "HgN/A
10:00 PM66 °FMild.3 mph88%30.18 "HgN/A
9:00 PM68 °FMild.6 mph83%30.15 "HgN/A
8:00 PM68 °FMild.No wind88%30.15 "HgN/A
7:00 PM70 °FMild.1 mph78%30.12 "HgN/A
6:00 PM73 °FMild.2 mph69%30.09 "HgN/A
5:00 PM72 °FMild.3 mph69%30.09 "HgN/A
4:00 PM72 °FMild.3 mph78%30.12 "HgN/A
3:00 PM70 °FMild.7 mph88%30.15 "HgN/A
Weather by CustomWeather, © 2014

See weather overviewHow to use our weather pages